Regional Weather Roundup
Issued by NWS

Home | Current Version | Previous Version | Graphics & Text | Print | Product List | Glossary Off
Versions: 1 2 3 4 5 6 7 8 9 10 11 12 13 14 15 16 17 18 19 20 21 22 23 24 25 26 27 28 29 30 31 32 33 34 35 36 37 38 39 40 41 42 43 44 45 46 47 48 49 50

000
ASUS43 KTOP 030259
RWRKS

WEATHER ROUNDUP FOR KANSAS
NATIONAL WEATHER SERVICE GOODLAND KS
900 PM CST FRI DEC 02 2016

NOTE:  "FAIR" INDICATES FEW OR NO CLOUDS BELOW 12,000 FEET WITH NO
SIGNIFICANT WEATHER AND/OR OBSTRUCTIONS TO VISIBILITY.

KSZ001>006-013>018-027>032-041>047-030400-
NORTHWEST KANSAS

CITY           SKY/WX    TMP DP  RH WIND       PRES   REMARKS
GOODLAND       CLOUDY    31  19  61 CALM      30.23R
HAYS           CLOUDY    26  21  81 N6        30.29R
HILL CITY      MOCLDY    27  20  75 CALM      30.29R
RUSSELL        CLOUDY    31  23  72 NE8       30.27R
$$

KSZ061>065-074>080-084>089-030400-
SOUTHWEST KANSAS

CITY           SKY/WX    TMP DP  RH WIND       PRES   REMARKS
DODGE CITY     CLOUDY    37  17  44 NE5       30.27R
ELKHART          N/A     39  11  31 E8          N/A
GARDEN CITY    CLOUDY    37  16  42 E12       30.25R WCI  29
GREAT BEND     CLOUDY    34  22  61 NE8       30.27S
LIBERAL        CLOUDY    43  14  31 E10       30.25R
$$

KSZ066>073-081>083-090>101-030400-
SOUTHEAST KANSAS

CITY           SKY/WX    TMP DP  RH WIND       PRES   REMARKS
CHANUTE        PTCLDY    43  27  53 NE7       30.29R
COFFEYVILLE    MOCLDY    46  28  49 NE10      30.27R
HUTCHINSON     PTCLDY    40  25  55 NE10      30.28R WCI  33
MEDICINE LODGE   N/A     44  23  43 CALM      30.27R
NEWTON         PTCLDY    38  22  52 E7        30.28R
PARSONS        CLOUDY    46  27  47 E6        30.28R
WICHITA INTL   CLOUDY    45  23  42 NE9       30.27R
WICHITA JABRA  CLOUDY    40  25  55 NE6       30.28R
WINFIELD       CLOUDY    47  24  40 E9        30.28R
$$

KSZ007>012-019>026-033>040-048>060-102>105-030400-
NORTHEAST KANSAS

CITY           SKY/WX    TMP DP  RH WIND       PRES   REMARKS
CONCORDIA      CLEAR     30  24  78 SE3       30.31R
EMPORIA        PTCLDY    36  26  67 NE7       30.29R
LAWRENCE       CLEAR     31  25  78 CALM      30.32R
MANHATTAN      CLEAR     33  26  75 CALM      30.31S
OLATHE IND     CLEAR     33  26  75 NE5       30.32R
OLATHE EXE     CLEAR     37  26  64 NE6       30.31S
SALINA         CLOUDY    38  25  59 NE7       30.31R
TOPEKA BILLARD CLEAR     33  25  72 N5        30.31F
TOPEKA FORBES  CLEAR     38  26  62 NE5       30.31S
$$




USA.gov is the U.S. government's official web portal to all federal, state and local government web resources and services.